Location: D�derode
(51.8092°N, 10.1065°E)
Time: 19:40:34
(UTC+00:00)

X-37B - Pass Details

Date: 20 April 2021
Orbit: 386 x 389 km, 45.0° (Epoch: 06 May)

Event Time Altitude Azimuth Distance (km) Brightness Sun altitude
Exits shadow 02:57:02 16° 206° (SSW) 1,132 2.4 -11.1°
Maximum altitude 02:58:31 21° 169° (S) 938 2.3 -10.9°
Drops below altitude 10° 03:01:00 10° 118° (ESE) 1,414 3.8 -10.6°
Sets 03:03:22 0° 102° (ESE) 2,269 5.2 -10.3°
